Zurück zum Katalog

STARLINK-30430

AktivKommunikationVLEO
NORAD 57849·PAYLOAD·🇺🇸 United States

Gestartet Sep 12, 2023 von Vandenberg Space Force Base

Loading…

Nächste Überflüge (nächste 24 Stunden)

TLE

AktuellSource: CelesTrak SupGP

Epoche: Sep 15, 2026, 03:18 UTC

1 57849C 23141K   26258.13798611  .00029479  00000+0  94793-3 0  2586
2 57849  53.1571 122.9870 0001282  83.3112 142.3913 15.31688356    17

Verfolge STARLINK-30430 in Echtzeit mit AllMySat

Download on the App Store